Content
SEND FEEDBACK

Daily
Averages
Monthly
Summary
Jamaica

MONTEGO BAY, JAMAICA


Home > Caribbean > Jamaica
Elevation: 10 feet     Latitude: 18 30N     Longitude: 077 55W

WEATHER
 
SELECT A DAY
Number of Records: 171,707;   Date Range: 7/1/96 - 10/22/14
 
SHARE

PRINT THIS DATA

[ ← Previous Day ]
WEATHER ALMANAC - SEPTEMBER 1, 2013
[ Next Day → ]
[ °C ]   °F
Weather ElementAverageHighLow
Temperature83.3 °F89.6 °F (12:00 pm)75.2 °F (5:00 am)
Dewpoint77.5 °F80.6 °F (10:00 am)73.4 °F (6:00 am)
Humidity82.4 %100 % (5:00 am)74 % (6:00 pm)
Barometer29.91 in29.98 in (10:00 pm)29.86 in (3:00 pm)
Wind Speed8.1 mph15 mph (12:00 pm)
Weather ElementAverage
Visibility8 mi
Wind DirectionESE (124.7 °)

Weather ElementTotal
Precipitation---
Cooling Degree Days17.4 (Base 65)
Growing Degree Days32.4 (Base 50)
Averaged from 30 records on September 1, 2013
WEATHER CONDITIONS BREAKOUT
WIND DIRECTION BREAKOUT
WEATHER BY HOUR - SEPTEMBER 1, 2013
[ °C ]   °F
Local TimeTemperatureDewpointHumidityBarometerVisibilityWind DirectionWind SpeedGust SpeedPrecipitationEventsConditions
1:00 AM78.8 °F75.2 °F89 %29.92 in6.2 miSE (140°)3.5 mphThunderstormPartly Cloudy
2:00 AM78.8 °F75.2 °F89 %29.89 in6.2 miWest (280°)2.3 mphThunderstormPartly Cloudy
3:00 AM77.0 °F75.2 °F94 %29.89 in6.2 miEast (80°)4.6 mphThunderstormPartly Cloudy
4:00 AM77.0 °F75.0 °F92 %29.89 in12.0 miWSW (250°)3.5 mphScattered Clouds
4:00 AM77.0 °F75.2 °F94 %29.89 in6.2 miWSW (250°)3.5 mphThunderstormPartly Cloudy
5:00 AM75.2 °F75.2 °F100 %29.89 in6.2 miSouth (180°)2.3 mphThunderstormPartly Cloudy
6:00 AM77.0 °F73.4 °F89 %29.92 in6.2 miSE (130°)2.3 mphPartly Cloudy
7:00 AM80.6 °F75.2 °F84 %29.92 in6.2 miESE (110°)6.9 mphThunderstormPartly Cloudy
7:00 AM81.0 °F75.0 °F78 %29.92 in17.0 miESE (110°)6.9 mphScattered Clouds
8:00 AM84.2 °F77.0 °F79 %29.92 in6.2 miSE (140°)4.6 mphPartly Cloudy
9:00 AM86.0 °F78.8 °F79 %29.92 in6.2 miSE (130°)8.1 mphPartly Cloudy
10:00 AM87.0 °F80.0 °F76 %29.94 in17.0 miENE (70°)10.4 mphScattered Clouds
10:00 AM87.8 °F80.6 °F79 %29.92 in6.2 miENE (70°)10.4 mphPartly Cloudy
11:00 AM87.8 °F80.6 °F79 %29.92 in6.2 miEast (90°)10.4 mphPartly Cloudy
12:00 PM89.6 °F80.6 °F75 %29.92 in6.2 miENE (60°)15.0 mphPartly Cloudy
1:00 PM87.8 °F80.6 °F79 %29.89 in6.2 miENE (70°)13.8 mphPartly Cloudy
1:00 PM87.0 °F80.0 °F75 %29.91 in17.0 miENE (70°)13.8 mphScattered Clouds
1:35 PM89.6 °F80.6 °F75 %29.89 in6.2 miEast (80°)13.8 mphThunderstormThunderstorm
2:00 PM89.6 °F80.6 °F75 %29.89 in6.2 miEast (80°)13.8 mphPartly Cloudy
3:00 PM86.0 °F78.8 °F79 %29.86 in6.2 miENE (70°)13.8 mphScattered Clouds
4:00 PM85.0 °F79.0 °F79 %29.86 in17.0 miENE (70°)13.8 mphHaze
4:00 PM86.0 °F78.8 °F79 %29.86 in6.2 miENE (70°)13.8 mphPartly Cloudy
5:00 PM86.0 °F78.8 °F79 %29.86 in6.2 miEast (90°)13.8 mphThunderstormThunderstorm
6:00 PM84.2 °F75.2 °F74 %29.89 in6.2 miSSW (210°)6.9 mphScattered Clouds
7:00 PM82.0 °F76.0 °F77 %29.92 in12.0 miSSE (150°)5.8 mphPartly Cloudy
7:00 PM82.4 °F75.2 °F79 %29.92 in6.2 miSSE (150°)5.8 mphThunderstormScattered Clouds
8:00 PM82.4 °F78.8 °F89 %29.92 in6.2 miEast (80°)4.6 mphThunderstormScattered Clouds
9:00 PM82.4 °F78.8 °F89 %29.95 in6.2 miSSE (160°)4.6 mphPartly Cloudy
10:00 PM82.4 °F77.0 °F84 %29.98 in6.2 miSSE (150°)5.8 mphPartly Cloudy
11:00 PM80.6 °F75.2 °F84 %29.95 in6.2 miSSE (150°)5.8 mphThunderstormScattered Clouds
Hourly data recorded from MKJS, located miles away from Montego Bay, Jamaica







STORIES FROM OUR PARTNERS